Flag for U.S.A. Weather past 2 weeks in Vancouver, Washington, U.S.A.

29 °F


Feels Like: 29 °F
Forecast: 28 / 44 °F
Wind: No wind

Location: Vancouver - Pearson Airpark

Current Time: Nov 25, 2015 at 2:49:29 AM

Latest Report: Nov 25, 2015 at 1:53 AM

Visibility: 10 mi

Pressure: 30.09 "Hg

Humidity: 93%

Dew point: 27 °F

Location of VancouverLocation

Historic Weather in Vancouver — Graph


Vancouver temperature yesterday

Maximum temperature yesterday: 43 °F (at 3:53 PM)
Minimum temperature yesterday: 32 °F (at 11:53 PM)
Average temperature yesterday: 40 °F

Past Weeks' High & Low Weather Summary

High60 °F (Nov 14, 1:53 PM)100% (Nov 12, 2:53 AM)30.47 "Hg (Nov 12, 2:53 AM)
Low26 °F (Nov 22, 4:53 AM)46% (Nov 20, 3:53 PM)29.46 "Hg (Nov 15, 12:53 AM)
Average45 °F82%30.09 "Hg
* Reported Nov 10 1:53 AM — Nov 25 1:53 AM, Vancouver, Weather by CustomWeather, © 2015

Note: Actual official high and low records may vary slightly from our data, if they occured in-between our weather recording intervals... More about our weather records


Vancouver weather history for previous 24 hours

Time TempWeatherWind HumidityBarometerVisibility
1:53 AM
Wed, Nov 25
29 °FClear.No wind93%30.09 "Hg10 mi
12:53 AM31 °FClear.No wind96%30.07 "Hg10 mi
11:53 PM
Tue, Nov 24
32 °FClear.No wind92%30.06 "Hg10 mi
10:53 PM34 °FPassing clouds.No wind88%30.05 "Hg10 mi
9:53 PM38 °FPassing clouds.No wind79%30.03 "Hg10 mi
8:53 PM34 °FClear.No wind92%30.01 "Hg10 mi
7:53 PM40 °FPassing clouds.No wind83%30.00 "Hg10 mi
6:53 PM40 °FPassing clouds.No wind86%29.97 "Hg10 mi
5:53 PM42 °FOvercast.6 mph79%29.96 "Hg10 mi
4:53 PM42 °FOvercast.7 mph79%29.94 "Hg10 mi
3:53 PM43 °FOvercast.7 mph79%29.91 "Hg10 mi
3:00 PM42 °FOvercast.6 mph79%29.91 "Hg10 mi
1:53 PM42 °FOvercast.7 mph82%29.88 "Hg10 mi
1:02 PM42 °FCloudy.3 mph82%29.87 "Hg10 mi
12:53 PM42 °FMostly cloudy.No wind85%29.87 "Hg10 mi
11:53 AM42 °FMostly cloudy.No wind85%29.87 "Hg10 mi
10:53 AM41 °FMore clouds than sun.No wind86%29.86 "Hg10 mi
9:53 AM40 °FLow clouds.No wind93%29.85 "Hg10 mi
9:00 AM39 °FFog.No wind96%29.82 "Hg6 mi
7:53 AM39 °FLight rain. Low clouds.No wind93%29.80 "Hg10 mi
6:53 AM39 °FOvercast.No wind89%29.78 "Hg10 mi
5:59 AM38 °FOvercast.No wind93%29.77 "Hg10 mi
4:53 AM38 °FLight rain. Mostly cloudy.3 mph90%29.75 "Hg10 mi
3:53 AM39 °FLight rain. Mostly cloudy.6 mph89%29.75 "Hg8 mi
2:53 AM40 °FLight rain. Mostly cloudy.6 mph89%29.75 "Hg7 mi
Weather by CustomWeather, © 2015

See weather overviewHow to use our weather pages